Orbital elements:
2024 JL3                                                 Earth MOID = 0.0019 AU
Epoch 2024 Mar. 31.0 TT = JDT 2460400.5                 Veres                   
M 303.20947              (2000.0)            P               Q                  
n   0.62792300     Peri.  249.08510     +0.37037376     +0.85773180             
a   1.3506157      Node    48.01000     -0.56827824     +0.51285588             
e   0.3847243      Incl.   28.66542     -0.73476739     +0.03570724             
P   1.57           H   26.42          G   0.15           U   6                  
Residuals in seconds of arc
240507 W16  0.1+  0.2+    240507 C40  0.3-  0.1-    240507 511  0.6-  0.6-
240507 W16  0.5-  0.3-    240507 C40  0.1+  0.2-    240507 511  0.7-  0.5-
240507 W16  0.5-  0.1-    240507 L76  0.2+  0.1+    240507 511  0.5-  0.5-
240507 W16  0.0   0.2-    240507 L76  0.5+  0.5-    240507 511  0.2-  0.2-
240507 W16  0.2-  0.3-    240507 L76  0.2+  0.1-    240507 511  0.0   0.0
240507 W16  0.2-  0.1-    240507 L76  0.0   0.5+    240507 511  0.6-  0.5-
240507 W16  0.2-  0.2-    240507 L76  0.4+  0.1+    240507 511  0.4-  0.4-
240507 W16  0.2-  0.1-    240507 L76  0.0   0.2-    240507 511  0.3-  0.5-
240507 703  0.3+  0.7+    240507 J57  0.2-  0.1-    240507 511  0.1-  0.1-
240507 703  0.5+  0.2+    240507 J57  1.3-  0.6-    240507 511  0.3+  0.2+
240507 703  0.0   0.3-    240507 J57  0.4-  0.5-    240507 511  0.7-  0.5-
240507 703  0.5+  0.2+    240507 Z80  0.2-  0.3+    240507 511  0.5-  0.5-
240507 I52  0.1-  0.0     240507 J95  0.4+  0.0     240507 J95  0.0   0.0
240507 I52  0.0   0.1-    240507 J95  0.2+  0.0     240507 J95  0.0   0.0
240507 I52  0.1+  0.2+    240507 J95  0.3+  0.0     240507 J95  0.1+  0.0
240507 I52  0.2+  0.1+    240507 I93  0.2+  0.0     240508 W42  1.1+  0.5+
240507 I52  0.1-  0.1-    240507 J95  0.2+  0.0     240508 Z84  0.0   0.0
240507 I52  0.3+  0.0     240507 Z80  0.0   0.4+    240508 Z84  0.2-  0.1-
240507 I52  0.2+  0.1+    240507 I93  0.2+  0.1+    240508 Z84  0.1-  0.0
240507 I52  0.0   0.0     240507 I93  0.1+  0.2+    240508 W42  1.1+  0.9+
240507 P13  0.4+  0.0     240507 I93  0.3+  0.1+    240508 W42  0.9+  0.8+
240507 P13  0.3+  0.0     240507 958  0.3-  0.2-    240508 W42  0.3+  0.2+
240507 P13  0.3+  0.1-    240507 958  0.4-  0.2-    240508 W42  1.4+  1.1+
240507 C40  0.2-  0.6-    240507 958  0.2-  0.1-    240508 I52  0.0   0.0
240507 C40  0.2-  0.4+    240507 511  0.8-  0.5-    240508 I52  0.2+  0.0
240507 C40  0.8+  0.3+    240507 511  0.6-  0.5-    240508 I52  0.1-  0.1-
240507 C40  0.2+  0.2-    240507 511  0.3-  0.3-    240508 I52  0.0   0.0

Ephemeris:
2024 JL3                 a,e,i = 1.35, 0.38, 29                  q = 0.8310
Date    TT    R. A. (2000) Decl.     Delta      r    Elong.  Phase     V
2024 04 08    16 21 44.7 +31 35 53   0.3272  1.1972   119.6    46.6    26.2
...
2024 04 23    16 27 49.0 +33 02 37   0.1668  1.1048   122.9    49.9    24.6
...
2024 05 01    16 26 00.3 +33 09 00   0.08154 1.0562   124.8    51.6    23.0
...
2024 05 07    16 00 38.4 +30 06 56   0.01776 1.0207   130.6    48.6    19.5
2024 05 08    15 16 55.6 +23 23 28   0.0073701.0149   139.3    40.4    17.4
2024 05 09    07 22 54.1 -42 50 41   0.0045011.0091    84.4    95.3    18.1
...
2024 05 15    04 41 35.6 -34 54 08   0.06761 0.9752    56.5   120.1    25.4
...
2024 05 23    04 35 19.8 -33 45 17   0.1525  0.9333    55.0   117.3    26.8
...
2024 06 07    04 31 48.4 -30 50 06   0.3096  0.8699    54.0   109.2    27.7

M. P. C. Staff               (C) Copyright 2024 MPC           M.P.E.C. 2024-J146





More information about the Iaude mailing list